******** Week 361 almanac for PRN-1 ******** ID: 1 Health: 0 Eccentricity: 0.001616954803 Time of Applicability(s): 589824 Orbital Inclination(rad): 0.9581891149 Rate of Right Ascen(r/s): -7.828897533e-09 SQRT(A) (m 1/2): 5153.577148 Right Ascen at Week(rad): 3.00857038 Argument of Perigee(rad): 0.1070000286 Mean Anom(rad): 2.571856236 Af0(s): 0.0002509735474 Af1(s/s): -7.275958e-12 week: 361 ******** Week 361 almanac for PRN-2 ******** ID: 2 Health: 0 Eccentricity: 0.01688337326 Time of Applicability(s): 589824 Orbital Inclination(rad): 0.9633842764 Rate of Right Ascen(r/s): -7.680319916e-09 SQRT(A) (m 1/2): 5153.544434 Right Ascen at Week(rad): 2.846162411 Argument of Perigee(rad): -0.8047489419 Mean Anom(rad): -2.23156754 Af0(s): 4.59741333e-05 Af1(s/s): 7.275958e-12 week: 361 ******** Week 361 almanac for PRN-3 ******** ID: 3 Health: 0 Eccentricity: 0.006537914276 Time of Applicability(s): 589824 Orbital Inclination(rad): 0.9934646809 Rate of Right Ascen(r/s): -7.851755628e-09 SQRT(A) (m 1/2): 5153.575195 Right Ascen at Week(rad): -2.28752638 Argument of Perigee(rad): 1.203707534 Mean Anom(rad): 0.4599448149 Af0(s): 0.0004265796631 Af1(s/s): -1.455192e-11 week: 361 ******** Week 361 almanac for PRN-4 ******** ID: 4 Health: 0 Eccentricity: 0.003735542297 Time of Applicability(s): 589824 Orbital Inclination(rad): 0.9704909218 Rate of Right Ascen(r/s): -7.897471818e-09 SQRT(A) (m 1/2): 5153.681641 Right Ascen at Week(rad): -1.216930628 Argument of Perigee(rad): -2.87431373 Mean Anom(rad): -2.852135424 Af0(s): 3.843739014e-05 Af1(s/s): 3.637979e-12 week: 361 ******** Week 361 almanac for PRN-5 ******** ID: 5 Health: 0 Eccentricity: 0.005422115326 Time of Applicability(s): 589824 Orbital Inclination(rad): 0.9800303648 Rate of Right Ascen(r/s): -7.977475151e-09 SQRT(A) (m 1/2): 5153.662598 Right Ascen at Week(rad): -2.347421664 Argument of Perigee(rad): 1.418007572 Mean Anom(rad): -2.183484208 Af0(s): -0.0001823891846 Af1(s/s): 0 week: 361 ******** Week 361 almanac for PRN-6 ******** ID: 6 Health: 0 Eccentricity: 0.003845214844 Time of Applicability(s): 589824 Orbital Inclination(rad): 0.9870471285 Rate of Right Ascen(r/s): -7.531742299e-09 SQRT(A) (m 1/2): 5153.603516 Right Ascen at Week(rad): 2.959450787 Argument of Perigee(rad): -0.5558841529 Mean Anom(rad): 1.769288423 Af0(s): -0.0004838589111 Af1(s/s): 0 week: 361 ******** Week 361 almanac for PRN-7 ******** ID: 7 Health: 0 Eccentricity: 0.02055740356 Time of Applicability(s): 589824 Orbital Inclination(rad): 0.9513281462 Rate of Right Ascen(r/s): -7.748894201e-09 SQRT(A) (m 1/2): 5153.572266 Right Ascen at Week(rad): -0.2082847054 Argument of Perigee(rad): -1.988509108 Mean Anom(rad): 0.9141551781 Af0(s): -0.0001273709595 Af1(s/s): -3.637979e-12 week: 361 ******** Week 361 almanac for PRN-8 ******** ID: 8 Health: 0 Eccentricity: 0.01159000397 Time of Applicability(s): 589824 Orbital Inclination(rad): 0.9430650231 Rate of Right Ascen(r/s): -8.091765626e-09 SQRT(A) (m 1/2): 5153.632324 Right Ascen at Week(rad): 1.838681579 Argument of Perigee(rad): 0.5274680576 Mean Anom(rad): -2.546269916 Af0(s): 0.0003783445068 Af1(s/s): -7.275958e-12 week: 361 ******** Week 361 almanac for PRN-9 ******** ID: 9 Health: 0 Eccentricity: 0.003345012665 Time of Applicability(s): 589824 Orbital Inclination(rad): 0.9646486122 Rate of Right Ascen(r/s): -7.988904198e-09 SQRT(A) (m 1/2): 5153.722656 Right Ascen at Week(rad): -1.281279175 Argument of Perigee(rad): 2.067094914 Mean Anom(rad): -1.955957332 Af0(s): 0.0006059541504 Af1(s/s): -3.637979e-12 week: 361 ******** Week 361 almanac for PRN-10 ******** ID: 10 Health: 0 Eccentricity: 0.01093244553 Time of Applicability(s): 589824 Orbital Inclination(rad): 0.9929972962 Rate of Right Ascen(r/s): -7.840326581e-09 SQRT(A) (m 1/2): 5153.604004 Right Ascen at Week(rad): -2.290035952 Argument of Perigee(rad): -2.255791029 Mean Anom(rad): -0.5310944092 Af0(s): -0.0004665244019 Af1(s/s): 0 week: 361 ******** Week 361 almanac for PRN-11 ******** ID: 11 Health: 0 Eccentricity: 0.002204418182 Time of Applicability(s): 589824 Orbital Inclination(rad): 0.9639175744 Rate of Right Ascen(r/s): -7.748894201e-09 SQRT(A) (m 1/2): 5153.535645 Right Ascen at Week(rad): 2.977972032 Argument of Perigee(rad): -2.307406712 Mean Anom(rad): 2.874839912 Af0(s): -0.0003218189331 Af1(s/s): 1.455192e-11 week: 361 ******** Week 361 almanac for PRN-12 ******** ID: 12 Health: 0 Eccentricity: 0.009006977081 Time of Applicability(s): 589824 Orbital Inclination(rad): 0.9591298766 Rate of Right Ascen(r/s): -7.954617056e-09 SQRT(A) (m 1/2): 5153.707031 Right Ascen at Week(rad): 0.9092502596 Argument of Perigee(rad): 1.563766456 Mean Anom(rad): 0.2424015467 Af0(s): -0.0004800905395 Af1(s/s): 0 week: 361 ******** Week 361 almanac for PRN-13 ******** ID: 13 Health: 0 Eccentricity: 0.01002073288 Time of Applicability(s): 589824 Orbital Inclination(rad): 0.9761354917 Rate of Right Ascen(r/s): -7.806039438e-09 SQRT(A) (m 1/2): 5153.627441 Right Ascen at Week(rad): -1.105963821 Argument of Perigee(rad): 0.9957497734 Mean Anom(rad): -2.788732133 Af0(s): 0.0005403844849 Af1(s/s): 0 week: 361 ******** Week 361 almanac for PRN-14 ******** ID: 14 Health: 0 Eccentricity: 0.006778717041 Time of Applicability(s): 589824 Orbital Inclination(rad): 0.9425077566 Rate of Right Ascen(r/s): -8.126052768e-09 SQRT(A) (m 1/2): 5153.59082 Right Ascen at Week(rad): 0.8544171875 Argument of Perigee(rad): -2.745870178 Mean Anom(rad): 0.09370353105 Af0(s): 0.0005840975952 Af1(s/s): 0 week: 361 ******** Week 361 almanac for PRN-15 ******** ID: 15 Health: 0 Eccentricity: 0.01661777496 Time of Applicability(s): 589824 Orbital Inclination(rad): 0.9425317251 Rate of Right Ascen(r/s): -8.286059433e-09 SQRT(A) (m 1/2): 5153.645996 Right Ascen at Week(rad): -1.42567036 Argument of Perigee(rad): 1.504060298 Mean Anom(rad): 2.740119622 Af0(s): 0.0003112674927 Af1(s/s): 3.637979e-12 week: 361 ******** Week 361 almanac for PRN-16 ******** ID: 16 Health: 0 Eccentricity: 0.01504087448 Time of Applicability(s): 589824 Orbital Inclination(rad): 0.9582430439 Rate of Right Ascen(r/s): -7.988904198e-09 SQRT(A) (m 1/2): 5153.592773 Right Ascen at Week(rad): 0.9262060653 Argument of Perigee(rad): 0.9310709116 Mean Anom(rad): -1.51462252 Af0(s): 0.000178620813 Af1(s/s): 7.275958e-12 week: 361 ******** Week 361 almanac for PRN-17 ******** ID: 17 Health: 0 Eccentricity: 0.0126452446 Time of Applicability(s): 589824 Orbital Inclination(rad): 0.9587643577 Rate of Right Ascen(r/s): -7.886042771e-09 SQRT(A) (m 1/2): 5153.544434 Right Ascen at Week(rad): 1.943609086 Argument of Perigee(rad): -1.119470417 Mean Anom(rad): -2.608087918 Af0(s): -6.933803711e-05 Af1(s/s): -1.091394e-11 week: 361 ******** Week 361 almanac for PRN-18 ******** ID: 18 Health: 0 Eccentricity: 0.005769252777 Time of Applicability(s): 589824 Orbital Inclination(rad): 0.9720009341 Rate of Right Ascen(r/s): -7.680319916e-09 SQRT(A) (m 1/2): 5153.594238 Right Ascen at Week(rad): 2.954250008 Argument of Perigee(rad): -2.86714192 Mean Anom(rad): 1.690874141 Af0(s): -0.0003172968872 Af1(s/s): 1.091394e-11 week: 361 ******** Week 361 almanac for PRN-19 ******** ID: 19 Health: 0 Eccentricity: 0.01117229462 Time of Applicability(s): 589824 Orbital Inclination(rad): 0.9579494304 Rate of Right Ascen(r/s): -7.886042771e-09 SQRT(A) (m 1/2): 5153.668945 Right Ascen at Week(rad): 1.987506178 Argument of Perigee(rad): 2.936711469 Mean Anom(rad): -0.8059747034 Af0(s): 0.000547921228 Af1(s/s): 0 week: 361 ******** Week 361 almanac for PRN-20 ******** ID: 20 Health: 0 Eccentricity: 0.002270698547 Time of Applicability(s): 589824 Orbital Inclination(rad): 0.9600526619 Rate of Right Ascen(r/s): -8.057478483e-09 SQRT(A) (m 1/2): 5153.706055 Right Ascen at Week(rad): -1.275723738 Argument of Perigee(rad): -1.994214348 Mean Anom(rad): 0.2221849083 Af0(s): 4.14520874e-05 Af1(s/s): 2.182787e-11 week: 361 ******** Week 361 almanac for PRN-21 ******** ID: 21 Health: 0 Eccentricity: 0.0007653236389 Time of Applicability(s): 589824 Orbital Inclination(rad): 0.9628749469 Rate of Right Ascen(r/s): -8.171768958e-09 SQRT(A) (m 1/2): 5153.718262 Right Ascen at Week(rad): -2.281639879 Argument of Perigee(rad): -0.2961391857 Mean Anom(rad): -0.07802367079 Af0(s): 0.0003225726074 Af1(s/s): 3.637979e-12 week: 361 ******** Week 361 almanac for PRN-22 ******** ID: 22 Health: 0 Eccentricity: 0.01206684113 Time of Applicability(s): 589824 Orbital Inclination(rad): 0.9576857775 Rate of Right Ascen(r/s): -8.000333246e-09 SQRT(A) (m 1/2): 5153.563477 Right Ascen at Week(rad): 0.9295608993 Argument of Perigee(rad): -0.9932005041 Mean Anom(rad): -1.960494859 Af0(s): -2.713227539e-05 Af1(s/s): 7.275958e-12 week: 361 ******** Week 361 almanac for PRN-23 ******** ID: 23 Health: 0 Eccentricity: 0.006048679352 Time of Applicability(s): 589824 Orbital Inclination(rad): 0.9880058665 Rate of Right Ascen(r/s): -7.874613723e-09 SQRT(A) (m 1/2): 5153.658691 Right Ascen at Week(rad): -2.322176145 Argument of Perigee(rad): -2.739596811 Mean Anom(rad): 0.5490789857 Af0(s): 0.0004929030029 Af1(s/s): 3.637979e-12 week: 361 ******** Week 361 almanac for PRN-24 ******** ID: 24 Health: 0 Eccentricity: 0.01791810989 Time of Applicability(s): 589824 Orbital Inclination(rad): 0.9352872611 Rate of Right Ascen(r/s): -7.943188008e-09 SQRT(A) (m 1/2): 5153.597656 Right Ascen at Week(rad): -0.3169640235 Argument of Perigee(rad): 1.136885369 Mean Anom(rad): 1.895997633 Af0(s): -6.481599121e-05 Af1(s/s): 1.818989e-11 week: 361 ******** Week 361 almanac for PRN-25 ******** ID: 25 Health: 0 Eccentricity: 0.01293087006 Time of Applicability(s): 589824 Orbital Inclination(rad): 0.9475531153 Rate of Right Ascen(r/s): -8.057478483e-09 SQRT(A) (m 1/2): 5153.657715 Right Ascen at Week(rad): 0.8152875697 Argument of Perigee(rad): 1.158795902 Mean Anom(rad): 0.1140343941 Af0(s): 0.0003459365112 Af1(s/s): -3.637979e-12 week: 361 ******** Week 361 almanac for PRN-26 ******** ID: 26 Health: 0 Eccentricity: 0.01101160049 Time of Applicability(s): 589824 Orbital Inclination(rad): 0.9283723634 Rate of Right Ascen(r/s): -8.251772291e-09 SQRT(A) (m 1/2): 5153.658203 Right Ascen at Week(rad): 0.7405299747 Argument of Perigee(rad): 0.7112184331 Mean Anom(rad): -0.7065378442 Af0(s): -0.000269061731 Af1(s/s): -3.637979e-12 week: 361 ******** Week 361 almanac for PRN-27 ******** ID: 27 Health: 0 Eccentricity: 0.0143737793 Time of Applicability(s): 589824 Orbital Inclination(rad): 0.9521670419 Rate of Right Ascen(r/s): -8.000333246e-09 SQRT(A) (m 1/2): 5153.61084 Right Ascen at Week(rad): 1.870826641 Argument of Perigee(rad): 0.8843556539 Mean Anom(rad): -2.443325424 Af0(s): -5.426455078e-05 Af1(s/s): -1.091394e-11 week: 361 ******** Week 361 almanac for PRN-28 ******** ID: 28 Health: 0 Eccentricity: 0.0004262924194 Time of Applicability(s): 589824 Orbital Inclination(rad): 0.9622517672 Rate of Right Ascen(r/s): -7.646032773e-09 SQRT(A) (m 1/2): 5153.757324 Right Ascen at Week(rad): -0.2338878784 Argument of Perigee(rad): -0.07366927757 Mean Anom(rad): 1.308472879 Af0(s): -0.0004567266357 Af1(s/s): 7.275958e-12 week: 361 ******** Week 361 almanac for PRN-29 ******** ID: 29 Health: 0 Eccentricity: 0.003395557404 Time of Applicability(s): 589824 Orbital Inclination(rad): 0.9614188635 Rate of Right Ascen(r/s): -7.851755628e-09 SQRT(A) (m 1/2): 5153.700195 Right Ascen at Week(rad): 1.960373519 Argument of Perigee(rad): 2.743582314 Mean Anom(rad): -2.585757562 Af0(s): -0.0002841352173 Af1(s/s): 7.275958e-12 week: 361 ******** Week 361 almanac for PRN-30 ******** ID: 30 Health: 0 Eccentricity: 0.008108139038 Time of Applicability(s): 589824 Orbital Inclination(rad): 0.9365815574 Rate of Right Ascen(r/s): -7.897471818e-09 SQRT(A) (m 1/2): 5153.702637 Right Ascen at Week(rad): -0.217455259 Argument of Perigee(rad): -2.311364502 Mean Anom(rad): 0.7306516028 Af0(s): 0.0001205878906 Af1(s/s): 1.455192e-11 week: 361 ******** Week 361 almanac for PRN-31 ******** ID: 31 Health: 0 Eccentricity: 0.01084136963 Time of Applicability(s): 589824 Orbital Inclination(rad): 0.9550971849 Rate of Right Ascen(r/s): -7.714607058e-09 SQRT(A) (m 1/2): 5153.52832 Right Ascen at Week(rad): -0.1840233911 Argument of Perigee(rad): 0.9374865915 Mean Anom(rad): -0.1778402801 Af0(s): -0.0001273709595 Af1(s/s): 3.637979e-12 week: 361 ******** Week 361 almanac for PRN-32 ******** ID: 32 Health: 0 Eccentricity: 0.00937461853 Time of Applicability(s): 589824 Orbital Inclination(rad): 0.9676926053 Rate of Right Ascen(r/s): -7.954617056e-09 SQRT(A) (m 1/2): 5153.689453 Right Ascen at Week(rad): -1.264231241 Argument of Perigee(rad): -1.994110235 Mean Anom(rad): -1.874105076 Af0(s): -3.843739014e-05 Af1(s/s): 1.818989e-11 week: 361